FW0683 Weather Reports


time (UTC)temp
F
wind
direction
speed
knots
gust
knots
rain 1hr
in
rain 24hr
in
rain mn
in
humidity
%
barometer
mb
20260902074526 61 87 0.0 0.0 0.00 0.22 0.00 94 1025.4
20260902073026 61 88 0.0 0.0 0.00 0.22 0.00 94 1025.3
20260902071525 61 87 0.0 0.0 0.00 0.22 0.00 94 1025.2
20260902070024 61 87 0.0 0.0 0.00 0.22 0.00 94 1025.0
20260902064523 61 87 0.0 0.0 0.00 0.22 0.00 94 1025.1
20260902063023 61 87 0.0 0.0 0.00 0.22 0.00 94 1025.0
20260902061539 61 87 0.0 0.0 0.00 0.22 0.00 94 1025.0
20260902060022 61 87 0.0 0.0 0.00 0.22 0.00 94 1025.2
20260902054521 61 87 0.0 0.0 0.00 0.22 0.00 94 1025.2
20260902053020 61 87 0.0 0.0 0.00 0.22 0.00 94 1025.1
20260902051517 61 87 0.0 0.0 0.00 0.22 0.00 94 1024.8
20260902050017 61 87 0.0 0.0 0.00 0.22 0.00 94 1024.6
20260902044514 61 87 0.0 0.0 0.00 0.22 0.00 94 1024.3
20260902043012 61 87 0.0 0.0 0.00 0.22 0.00 94 1024.0
20260902041511 61 87 0.0 0.0 0.00 0.22 0.00 94 1024.0
20260902040011 61 87 0.0 0.0 0.00 0.22 0.22 94 1023.7
20260902034512 61 87 0.0 0.0 0.00 0.22 0.22 93 1023.6
20260902033017 61 87 0.0 0.0 0.00 0.22 0.22 93 1023.6
20260902031508 61 87 0.0 0.0 0.00 0.22 0.22 93 1023.5
20260902030008 61 87 0.0 0.0 0.00 0.22 0.22 93 1023.4
20260902024507 62 87 0.0 0.0 0.00 0.22 0.22 93 1023.5
20260902023007 62 87 0.0 0.0 0.00 0.22 0.22 93 1023.5
20260902021521 62 87 0.0 0.0 0.00 0.22 0.22 93 1023.5
20260902020008 62 87 0.0 0.0 0.00 0.22 0.22 93 1023.5
20260902014505 62 87 0.0 0.0 0.00 0.22 0.22 93 1023.8
20260902013004 63 88 0.0 0.0 0.00 0.22 0.22 92 1023.6
20260902011503 63 87 0.0 0.0 0.00 0.22 0.22 92 1023.6
20260902010002 63 87 0.0 0.0 0.00 0.22 0.22 92 1023.5
20260902004503 63 87 0.0 0.0 0.00 0.22 0.22 92 1023.3
20260902003001 63 87 0.0 0.0 0.00 0.22 0.22 92 1023.3
20260902001559 63 87 0.0 0.0 0.00 0.22 0.22 91 1023.1
20260902000059 64 88 0.0 0.0 0.00 0.22 0.22 90 1022.7
20260901234559 64 87 0.0 0.0 0.00 0.22 0.22 90 1022.9
20260901233058 64 87 0.0 0.0 0.00 0.22 0.22 89 1023.1
20260901231558 65 87 0.0 0.0 0.00 0.22 0.22 89 1023.1
20260901230057 65 87 0.0 0.0 0.00 0.22 0.22 88 1023.0
20260901224558 66 87 0.0 0.0 0.00 0.22 0.22 87 1022.8
20260901223054 66 98 0.0 0.0 0.00 0.22 0.22 86 1022.7
20260901221554 66 95 0.0 0.0 0.00 0.22 0.22 86 1022.7
20260901220057 67 95 0.0 0.0 0.00 0.22 0.22 85 1022.6
20260901214554 67 90 0.0 0.0 0.00 0.22 0.22 85 1022.5
20260901213051 67 94 0.0 0.0 0.00 0.22 0.22 86 1022.6
20260901211550 67 93 0.0 0.0 0.00 0.22 0.22 85 1022.5
20260901210050 67 76 0.0 0.0 0.00 0.22 0.22 85 1022.4
20260901204549 67 89 0.0 0.0 0.00 0.22 0.22 85 1022.3
20260901203050 67 84 0.0 0.0 0.00 0.22 0.22 85 1022.0
20260901201547 67 85 0.0 0.0 0.00 0.22 0.22 85 1022.1
20260901194556 66 108 0.0 0.0 0.00 0.22 0.22 86 1022.0
20260901193047 66 6 0.0 0.0 0.00 0.22 0.22 86 1022.2
20260901191545 66 100 0.0 0.0 0.00 0.22 0.22 87 1022.3
20260901190050 66 98 0.0 0.0 0.00 0.22 0.22 87 1022.4
20260901184546 66 94 0.0 0.0 0.00 0.22 0.22 88 1022.4
20260901183038 65 94 0.0 0.0 0.00 0.22 0.22 89 1022.2
20260901181537 65 88 0.0 0.0 0.01 0.22 0.22 89 1022.3
20260901180034 65 73 0.0 0.0 0.01 0.22 0.22 90 1022.0
20260901174539 64 59 0.0 0.0 0.01 0.22 0.22 90 1022.0
20260901173035 64 89 0.0 0.0 0.01 0.22 0.22 90 1021.8
20260901171531 64 82 0.0 0.0 0.00 0.21 0.21 90 1021.9
20260901170029 63 41 0.0 0.0 0.00 0.21 0.21 89 1021.9
20260901164529 63 41 0.0 0.0 0.00 0.21 0.21 90 1022.0
20260901163033 63 41 0.0 0.0 0.00 0.21 0.21 89 1022.2
20260901161526 63 97 0.0 0.0 0.00 0.21 0.21 90 1022.5
20260901160024 63 80 0.0 0.0 0.00 0.21 0.21 90 1022.3
20260901154524 63 79 0.0 0.0 0.00 0.21 0.21 90 1022.0
20260901153023 63 344 0.0 0.0 0.00 0.21 0.21 90 1021.8
20260901151530 62 103 0.0 0.0 0.00 0.21 0.21 91 1022.1
20260901150024 62 329 0.0 0.0 0.00 0.21 0.21 92 1022.0
20260901144521 61 82 0.0 0.0 0.01 0.21 0.21 93 1022.1
20260901143017 60 96 0.0 0.0 0.03 0.21 0.21 94 1022.1
20260901141513 59 95 0.0 0.0 0.04 0.21 0.21 94 1021.9
20260901140010 59 94 0.0 0.0 0.05 0.21 0.21 94 1022.0
20260901134509 59 95 0.0 0.0 0.06 0.20 0.20 94 1022.2
20260901133007 59 94 0.0 0.0 0.07 0.18 0.18 94 1022.3
20260901131506 58 94 0.0 0.0 0.10 0.17 0.17 94 1022.5
20260901130004 58 94 0.0 0.0 0.12 0.16 0.16 94 1022.5
20260901124505 58 94 0.0 0.0 0.13 0.14 0.14 94 1022.6
20260901123004 58 94 0.0 0.0 0.11 0.11 0.11 93 1022.8
20260901121609 58 94 0.0 0.0 0.07 0.07 0.07 93 1022.7
20260901120059 58 94 0.0 0.0 0.04 0.04 0.04 93 1022.3
20260901114558 58 94 0.0 0.0 0.01 0.01 0.01 93 1022.3
20260901113104 58 94 0.0 0.0 0.00 0.00 0.00 93 1021.9
20260901111556 57 94 0.0 0.0 0.00 0.00 0.00 93 1022.1
20260901110103 57 94 0.0 0.0 0.00 0.00 0.00 93 1022.0
20260901104600 57 94 0.0 0.0 0.00 0.00 0.00 93 1021.9
20260901103054 57 94 0.0 0.0 0.00 0.00 0.00 93 1021.6
20260901101550 57 94 0.0 0.0 0.00 0.00 0.00 93 1021.4
20260901100104 56 94 0.0 0.0 0.00 0.00 0.00 93 1021.3
20260901094554 56 94 0.0 0.0 0.00 0.00 0.00 93 1021.3
20260901093102 56 94 0.0 0.0 0.00 0.00 0.00 93 1021.2
20260901091559 56 94 0.0 0.0 0.00 0.00 0.00 93 1021.3
20260901090049 56 94 0.0 0.0 0.00 0.00 0.00 93 1021.2
20260901084549 56 94 0.0 0.0 0.00 0.00 0.00 93 1021.2
20260901083051 57 94 0.0 0.0 0.00 0.00 0.00 93 1021.3
20260901081548 56 94 0.0 0.0 0.00 0.00 0.00 93 1021.3
20260901080047 57 94 0.0 0.0 0.00 0.00 0.00 93 1021.1